Back to catalog

ATLAS 28E DEB

AlivePO
NORAD 20575·DEBRIS·🇺🇸 United States

Launched Apr 11, 1990 from Vandenberg Space Force Base

Loading…

Next Passes (next 24 hours)

TLE

FreshSource: Space-Track

Epoch: Sep 14, 2026, 01:43 UTC

1 20575U 90031G   26257.07191265  .00003321  00000-0  24832-3 0  9996
2 20575  90.3423 302.3589 0026805  61.9187 298.4754 15.02320233408434

Track ATLAS 28E DEB in real time with AllMySat

Download on the App Store